Weather History for Arctic Village, AK

Change the Weather History Date:

Sunday, December 23, 2012

  Actual Average Record
Temperature  
Mean Temperature -17 °F -  
Max Temperature -2 °F -5 °F 25 °F (1962)
Min Temperature -32 °F -28 °F -48 °F (1992)
Degree Days  
Heating Degree Days 82    
Moisture  
Dew Point -26 °F    
Average Humidity 53    
Maximum Humidity 100    
Minimum Humidity 4    
Precipitation  
Precipitation 0.00 in - - ()
Sea Level Pressure  
Sea Level Pressure 30.09 in    
Wind  
Wind Speed 2 mph (NE)    
Max Wind Speed 10 mph    
Max Gust Speed -    
Visibility 10 miles    
Events      
Averages and records for this station are not official NWS values.
T = Trace of Precipitation, MM = Missing Value Source: NWS Daily Summary

Daily Weather History Graph

Daily Weather History Graph

Search for Another Location

Airport:

Trip Planner

Search our weather history database for the weather conditions in past years. The results will help you decide how hot, cold, wet, or windy it might be!

Date:

Astronomy

Dec. 23, 2012 Rise Set
Actual Time 12:09 PM AKST 1:14 PM AKST
Civil Twilight 10:04 AM AKST 3:19 PM AKST
Nautical Twilight 8:33 AM AKST 4:49 PM AKST
Astronomical Twilight 7:21 AM AKST 6:01 PM AKST
Moon 11:58 AM AKST (12/23) 6:06 AM AKST (12/23)
Length of Visible Light 5h 15m
Length of Day
1h 04m
Waxing Gibbous, 82% of the Moon is Illuminated
Dec 23
Waxing Gibbous
Dec 28
Full
Jan 4
Last Quarter
Jan 11
New
Jan 18
First Quarter

Hourly Weather History & Observations

Time (AKST) Temp. Windchill Dew Point Humidity Pressure Visibility Wind Dir Wind Speed Gust Speed Precip Events Conditions
12:16 AM -29.2 °F - - N/A% 30.26 in 10.0 mi Calm Calm - N/A   Clear
12:36 AM -32.8 °F - -68.8 °F 13% 30.26 in 8.0 mi Calm Calm - N/A   Clear
12:56 AM -32.8 °F - - N/A% 30.25 in 9.0 mi Calm Calm - N/A   Clear
1:16 AM -27.4 °F - - N/A% 30.25 in 10.0 mi Calm Calm - N/A   Clear
1:36 AM -27.4 °F - - N/A% 30.25 in 10.0 mi Calm Calm - N/A   Clear
1:56 AM -31.0 °F - - N/A% 30.24 in 10.0 mi Calm Calm - N/A   Clear
2:16 AM -29.2 °F - - N/A% 30.24 in 10.0 mi Calm Calm - N/A   Clear
2:36 AM -27.4 °F - - N/A% 30.23 in 10.0 mi Calm Calm - N/A   Clear
2:56 AM -25.6 °F - - N/A% 30.23 in 10.0 mi Calm Calm - N/A   Clear
3:16 AM -27.4 °F - - N/A% 30.22 in 10.0 mi Calm Calm - N/A   Clear
3:36 AM -27.4 °F - - N/A% 30.22 in 10.0 mi Calm Calm - N/A   Clear
3:56 AM -27.4 °F - - N/A% 30.21 in 10.0 mi Calm Calm - N/A   Clear
4:16 AM -25.6 °F - - N/A% 30.21 in 10.0 mi Calm Calm - N/A   Clear
4:36 AM -23.8 °F - - N/A% 30.20 in 10.0 mi Calm Calm - N/A   Clear
4:56 AM -23.8 °F - - N/A% 30.20 in 10.0 mi Calm Calm - N/A   Clear
5:16 AM -22.0 °F - - N/A% 30.19 in 10.0 mi Calm Calm - N/A   Clear
5:36 AM -20.2 °F - - N/A% 30.18 in 10.0 mi Calm Calm - N/A   Clear
5:56 AM -25.6 °F - - N/A% 30.17 in 10.0 mi Calm Calm - N/A   Clear
6:16 AM -20.2 °F - -25.6 °F 76% 30.17 in 10.0 mi Calm Calm - N/A   Clear
6:36 AM -18.4 °F - - N/A% 30.16 in 10.0 mi Calm Calm - N/A   Clear
6:56 AM -20.2 °F - -29.2 °F 63% 30.16 in 10.0 mi Calm Calm - N/A   Clear
7:16 AM -20.2 °F -33.5 °F - N/A% 30.15 in 10.0 mi NE 4.6 mph - N/A   Clear
7:36 AM -18.4 °F -31.4 °F -23.8 °F 76% 30.15 in 10.0 mi ENE 4.6 mph - N/A   Clear
7:56 AM -18.4 °F - - N/A% 30.16 in 10.0 mi Calm Calm - N/A   Clear
8:16 AM -16.6 °F -29.3 °F -16.6 °F 100% 30.16 in 10.0 mi ENE 4.6 mph - N/A   Clear
8:36 AM -14.8 °F -30.8 °F - N/A% 30.16 in 10.0 mi ENE 6.9 mph - N/A   Clear
8:56 AM -16.6 °F -32.9 °F -25.6 °F 64% 30.15 in 10.0 mi NE 6.9 mph - N/A   Clear
9:16 AM -16.6 °F -34.4 °F -22.0 °F 76% 30.15 in 10.0 mi NE 8.1 mph - N/A   Clear
9:36 AM -16.6 °F - - N/A% 30.15 in 10.0 mi Calm Calm - N/A   Clear
9:56 AM -16.6 °F - - N/A% 30.15 in 10.0 mi Calm Calm - N/A   Clear
10:16 AM -16.6 °F - - N/A% 30.14 in 10.0 mi Calm Calm - N/A   Clear
10:36 AM -16.6 °F -29.3 °F - N/A% 30.13 in 10.0 mi NE 4.6 mph - N/A   Clear
10:56 AM -18.4 °F -28.9 °F - N/A% 30.12 in 10.0 mi NE 3.5 mph - N/A   Clear
11:16 AM -18.4 °F -33.4 °F - N/A% 30.12 in 10.0 mi ENE 5.8 mph - N/A   Clear
11:36 AM -20.2 °F - - N/A% 30.12 in 10.0 mi Calm Calm - N/A   Clear
11:56 AM -20.2 °F - - N/A% 30.12 in 10.0 mi Calm Calm - N/A   Clear
12:16 PM -20.2 °F - - N/A% 30.11 in 10.0 mi Calm Calm - N/A   Clear
12:36 PM -20.2 °F - - N/A% 30.10 in 10.0 mi Calm Calm - N/A   Clear
12:56 PM -20.2 °F - - N/A% 30.11 in 10.0 mi Calm Calm - N/A   Clear
1:16 PM -16.6 °F -26.8 °F -23.8 °F 70% 30.10 in 10.0 mi NE 3.5 mph - N/A   Clear
1:36 PM -18.4 °F -33.4 °F - N/A% 30.09 in 10.0 mi North 5.8 mph - N/A   Clear
1:56 PM -18.4 °F -33.4 °F - N/A% 30.08 in 10.0 mi ENE 5.8 mph - N/A   Clear
2:16 PM -18.4 °F - -25.6 °F 70% 30.08 in 10.0 mi Calm Calm - N/A   Clear
2:36 PM -16.6 °F - -23.8 °F 70% 30.06 in 10.0 mi Calm Calm - N/A   Clear
2:56 PM -16.6 °F - -25.6 °F 64% 30.05 in 10.0 mi Calm Calm - N/A   Clear
3:16 PM -13.0 °F - - N/A% 30.05 in 10.0 mi Calm Calm - N/A   Partly Cloudy
3:36 PM -9.4 °F -24.3 °F - N/A% 30.03 in 10.0 mi NE 6.9 mph - N/A   Partly Cloudy
3:56 PM -5.8 °F -22.4 °F -31.0 °F 29% 30.02 in 10.0 mi NE 9.2 mph - N/A   Clear
4:16 PM -7.6 °F -25.7 °F -29.2 °F 34% 30.01 in 10.0 mi ENE 10.4 mph - N/A   Clear
4:36 PM -14.8 °F -24.8 °F - N/A% 30.02 in 10.0 mi NNE 3.5 mph - N/A   Partly Cloudy
4:56 PM -16.6 °F -32.9 °F - N/A% 30.01 in 10.0 mi NE 6.9 mph - N/A   Mostly Cloudy
5:16 PM -14.8 °F -29.1 °F -29.2 °F 48% 30.00 in 10.0 mi NE 5.8 mph - N/A   Overcast
5:56 PM -13.0 °F -22.7 °F -23.8 °F 59% 30.00 in 10.0 mi North 3.5 mph - N/A   Overcast
6:16 PM -13.0 °F -22.7 °F -23.8 °F 59% 30.00 in 10.0 mi East 3.5 mph - N/A   Overcast
6:36 PM -11.2 °F -24.8 °F -25.6 °F 49% 29.98 in 10.0 mi NNE 5.8 mph - N/A   Overcast
6:56 PM -11.2 °F - - N/A% 29.98 in 10.0 mi Calm Calm - N/A   Overcast
7:16 PM -11.2 °F -20.6 °F - N/A% 29.97 in 10.0 mi NE 3.5 mph - N/A   Overcast
7:36 PM -7.6 °F -20.6 °F - N/A% 29.96 in 10.0 mi NNE 5.8 mph - N/A   Overcast
7:56 PM -7.6 °F -20.6 °F - N/A% 29.96 in 10.0 mi NE 5.8 mph - N/A   Overcast
8:16 PM -5.8 °F -16.7 °F -25.6 °F 38% 29.96 in 10.0 mi NE 4.6 mph - N/A   Overcast
8:36 PM -4.0 °F -14.6 °F -20.2 °F 46% 29.95 in 7.0 mi East 4.6 mph - N/A   Overcast
8:56 PM -4.0 °F -14.6 °F -14.8 °F 60% 29.95 in 9.0 mi North 4.6 mph - N/A   Overcast
9:16 PM -2.2 °F -12.5 °F -13.0 °F 60% 29.94 in 8.0 mi NNE 4.6 mph - N/A   Overcast
9:36 PM -2.2 °F -14.2 °F - N/A% 29.93 in 9.0 mi NE 5.8 mph - N/A   Overcast
9:56 PM -2.2 °F -12.5 °F -27.4 °F 29% 29.92 in 10.0 mi NE 4.6 mph - N/A   Overcast
10:16 PM -2.2 °F -12.5 °F -25.6 °F 32% 29.92 in 10.0 mi ENE 4.6 mph - N/A   Overcast
10:36 PM -2.2 °F -10.4 °F -20.2 °F 42% 29.91 in 10.0 mi ENE 3.5 mph - N/A   Overcast
10:56 PM -2.2 °F -12.5 °F -14.8 °F 55% 29.91 in 10.0 mi East 4.6 mph - N/A   Overcast
11:16 PM -2.2 °F - -9.4 °F 71% 29.91 in 10.0 mi Calm Calm - N/A   Overcast
11:36 PM -2.2 °F - -65.2 °F 4% 29.91 in 10.0 mi Calm Calm - N/A   Mostly Cloudy
11:56 PM -2.2 °F -10.4 °F -27.4 °F 29% 29.91 in 10.0 mi East 3.5 mph - N/A   Overcast